Location: New York
(40.7127°N, 74.0060°W)
Time: 13:42:35
(UTC-04:00)

VELOX 1 - Pass Details

Date: 28 April 2024
Orbit: 605 x 617 km, 98.3° (Epoch: 28 May)

Event Time Altitude Azimuth Distance (km) Brightness Sun altitude
Rises 22:30:32 0° 349° (N) 2,902 ? -25.6°
Reaches altitude 10° 22:34:45 10° 309° (NW) 1,988 ? -26.0°
Maximum altitude 22:35:28 10° 299° (WNW) 1,963 ? -26.1°
Drops below altitude 10° 22:36:10 10° 290° (WNW) 1,986 ? -26.2°
Sets 22:40:22 0° 249° (WSW) 2,882 ? -26.7°
